Probability
16 17 19 19 20 19 17 14 11 7 4 2 1 0 1 2 3 3 3 3 1 0 0 0 0 0 0 0 0 0 0 0 0 0 0 0 0 0 0 0 0 0 0
19 19 20 20 20 20 18 15 11 8 5 2 1 1 2 3 3 3 3 3 2 1 1 0 0 0 0 0 0 0 0 0 0 0 0 0 0 0 0 0 0 0 0
22 22 21 21 20 20 19 16 12 8 5 3 2 3 3 3 3 3 3 3 3 3 2 1 1 0 0 0 0 0 0 0 0 0 0 0 0 0 0 0 0 0 0
21 22 24 24 22 20 19 15 12 9 6 3 3 3 4 4 4 4 3 3 3 3 3 3 2 1 0 0 0 0 0 0 0 0 0 0 0 0 0 0 0 0 0
19 22 28 28 25 22 19 15 12 10 8 5 3 3 3 4 4 4 4 3 3 3 3 3 3 2 1 1 0 0 0 0 0 0 0 0 0 0 0 0 0 0 0
18 23 29 31 28 24 20 15 12 12 11 8 4 3 3 3 3 4 4 4 3 3 3 3 3 3 3 2 1 0 0 0 0 0 0 0 0 0 0 0 0 0 0
21 24 28 31 30 26 21 15 12 13 13 11 8 6 4 3 3 3 4 3 3 3 3 3 3 3 3 2 1 0 0 0 0 0 0 0 0 0 0 0 0 0 0
26 25 27 30 31 28 22 17 15 15 15 13 11 10 7 4 3 3 3 3 3 3 3 3 3 3 2 1 0 0 0 0 0 0 0 0 0 0 0 0 0 0 0
26 24 24 26 28 26 22 18 16 14 14 13 12 11 9 5 4 3 3 3 3 3 4 3 3 3 1 0 0 0 0 0 0 0 0 0 0 0 0 1 0 0 0
23 22 21 22 21 20 19 17 14 11 10 10 10 10 8 5 4 3 3 3 3 4 4 4 3 2 1 0 0 0 0 0 0 0 0 0 0 0 0 0 0 0 0
23 21 19 18 17 16 16 16 12 8 7 7 8 8 7 6 4 3 3 3 3 3 4 3 2 1 0 0 0 0 0 0 0 0 0 0 0 0 0 0 0 0 0
23 19 16 16 16 14 15 15 11 7 5 5 6 7 8 6 4 3 3 3 3 2 2 2 1 0 0 0 0 0 0 0 0 0 0 0 0 0 0 0 0 0 0
22 19 16 17 17 15 13 13 11 8 7 6 6 7 8 7 6 4 3 2 1 1 1 1 0 0 0 0 0 0 0 0 0 0 0 0 0 0 0 0 0 0 0
21 20 21 21 20 16 13 11 10 9 8 7 7 7 8 8 6 4 2 1 0 0 0 0 0 0 0 0 0 0 0 0 0 0 0 0 0 0 0 0 0 0 0
21 23 25 25 23 19 15 11 9 10 10 8 7 7 8 9 6 4 2 1 0 0 0 0 0 0 0 0 0 0 0 0 0 0 0 0 0 0 0 0 0 0 0
20 23 26 26 24 21 16 11 9 10 10 9 8 7 8 8 7 4 2 1 0 0 0 0 0 0 0 0 0 0 0 0 0 0 0 0 0 0 1 1 0 0 0
17 20 24 26 26 22 17 13 11 9 10 10 9 9 9 9 8 4 1 0 0 0 0 0 0 0 0 0 0 0 0 0 0 0 0 0 0 0 1 1 1 0 0
14 17 22 25 25 22 18 16 13 10 10 12 12 11 11 10 8 3 1 0 0 0 0 0 0 0 0 0 0 0 0 0 0 0 0 0 0 0 0 1 1 0 0
15 17 20 23 23 21 19 17 14 13 13 14 14 13 12 11 8 3 1 0 0 0 0 0 0 0 0 0 0 0 0 0 0 0 0 0 0 0 0 0 0 0 0
15 16 18 19 19 20 19 16 15 15 14 12 12 12 11 10 8 4 2 1 0 0 0 0 0 0 0 0 0 0 0 0 0 0 0 0 0 0 0 0 0 0 0
15 14 14 14 16 18 17 16 15 14 13 10 9 9 8 9 8 5 5 4 1 0 0 0 0 0 0 0 0 0 0 0 0 0 0 0 0 0 0 0 0 0 0
14 12 11 11 13 14 15 16 15 14 13 11 9 7 7 8 8 6 5 4 2 1 1 0 0 0 0 0 0 0 0 0 0 0 0 0 0 0 0 0 0 0 0
14 12 10 10 11 12 14 14 15 15 14 12 10 8 9 9 8 6 5 3 1 1 2 1 0 0 0 0 0 0 0 0 0 0 0 0 0 0 0 0 0 0 0
12 11 11 11 10 12 12 12 14 15 14 12 10 9 10 9 8 7 4 2 1 1 1 1 0 0 0 0 0 0 0 0 0 0 0 0 0 0 0 0 0 0 0
11 12 12 12 11 11 11 11 11 13 12 11 10 8 8 8 8 6 5 3 1 1 1 0 0 0 0 0 0 0 0 0 0 0 0 0 0 0 0 0 0 0 0
11 12 13 13 12 11 11 11 10 10 11 11 9 7 7 8 7 7 6 4 2 2 1 0 0 0 0 0 0 0 0 0 0 0 0 0 0 0 0 0 0 0 0
Wind_Speed
8 11 12 12 13 12 12 12 12 12 12 12 12 12 12 12 13 13 13 13 13 13 14 14 14 15 15 15 15 15 15 15 16 17 16 16 16 16 16 15 14 11 16
11 12 12 12 13 13 12 12 12 12 12 12 12 12 12 12 12 12 13 13 14 14 14 14 14 14 14 14 14 14 14 13 14 14 15 14 15 16 16 16 15 11 16
12 13 12 12 13 13 12 12 12 11 11 11 11 11 12 12 12 12 13 13 13 13 13 14 13 14 14 13 13 12 11 11 10 10 10 7 10 15 15 15 15 16 16
11 11 11 12 13 13 12 12 12 11 11 11 11 11 12 12 12 12 13 13 13 13 13 13 13 13 13 12 11 11 10 10 9 9 7 7 7 14 15 15 15 15 15
9 10 11 12 13 13 13 12 12 11 11 11 11 11 11 11 12 12 12 12 12 13 13 13 13 13 12 11 11 10 9 9 9 8 8 7 6 13 14 14 14 14 14
9 10 11 12 13 13 12 12 11 11 12 12 12 11 11 11 12 12 12 11 12 12 12 12 12 12 11 11 10 9 9 9 7 7 7 6 6 12 14 14 13 13 14
9 9 11 11 12 12 12 12 11 11 11 11 11 11 11 11 11 12 11 11 11 11 11 11 11 11 11 10 9 9 8 8 6 7 7 6 7 12 13 13 13 13 13
8 10 10 11 11 11 11 11 11 11 11 11 11 11 11 11 12 11 11 11 11 11 11 11 10 10 10 9 8 8 7 7 7 8 7 6 10 12 12 12 12 12 12
8 9 8 8 9 9 10 10 10 10 10 10 10 11 11 11 11 11 11 10 10 10 10 10 10 9 9 8 7 6 6 7 5 5 7 5 9 11 12 11 11 11 11
7 7 7 7 7 7 7 9 10 10 10 10 10 10 10 10 10 10 10 10 10 10 10 9 9 9 8 7 5 4 5 5 5 6 4 5 10 11 11 10 10 10 10
5 5 6 6 6 5 6 8 8 9 9 9 8 9 8 6 6 7 9 9 10 10 10 10 9 8 7 5 3 2 3 3 5 5 4 7 10 10 10 10 9 9 9
3 4 5 5 5 5 5 6 5 5 6 6 6 7 5 4 5 7 9 9 9 9 9 8 8 6 3 2 1 1 1 4 4 4 4 8 9 9 9 8 8 8 8
4 3 5 5 4 4 4 4 3 3 4 5 6 6 4 4 5 5 4 5 5 6 4 5 4 2 2 2 1 1 2 3 3 3 4 7 8 8 7 7 7 6 6
3 3 3 4 4 4 3 3 3 3 3 3 5 5 4 3 4 4 3 4 3 3 3 3 2 2 2 2 2 2 3 3 3 3 3 7 7 6 6 6 5 5 5
3 3 3 4 4 4 3 2 3 3 3 3 4 4 4 4 4 4 3 3 3 3 3 2 2 2 2 2 2 3 3 4 4 3 3 6 6 5 5 4 4 4 4
3 3 3 4 4 4 3 2 2 3 3 3 3 4 5 4 4 4 4 3 3 3 2 2 2 2 2 2 2 2 2 3 4 4 3 4 5 5 4 3 3 3 4
3 3 3 3 4 4 3 3 2 2 3 3 3 4 5 5 5 4 4 3 3 3 3 2 2 2 2 2 2 2 2 2 2 3 3 3 3 3 3 2 2 2 3
2 2 2 2 3 3 3 3 2 2 3 3 3 3 5 6 5 4 4 3 3 3 3 2 2 2 2 2 1 1 1 1 2 2 2 2 2 2 2 2 1 1 2
1 2 2 2 3 3 2 2 2 2 2 3 3 3 5 6 6 4 4 4 4 3 3 2 2 2 2 2 1 1 1 1 1 1 2 2 2 2 2 2 2 0 1
1 1 1 1 2 2 2 1 1 2 2 2 3 3 5 5 6 5 4 5 4 4 3 3 3 3 3 2 1 1 1 1 1 1 2 1 2 2 2 2 2 1 1
1 1 1 1 1 2 2 2 2 2 2 2 3 4 5 5 6 5 4 5 4 4 4 4 4 4 2 2 2 1 1 1 1 1 1 2 2 2 2 2 1 1 1
0 1 1 2 2 2 2 2 3 3 2 2 3 4 5 6 5 5 5 4 4 4 4 4 4 3 2 2 2 1 0 1 2 2 1 2 2 1 2 2 2 1 1
0 1 1 2 2 2 2 2 2 1 2 2 2 3 4 5 6 5 5 5 4 4 4 5 4 4 3 2 2 2 2 2 1 1 1 1 1 1 1 1 1 1 1
2 1 2 1 2 2 2 3 4 3 3 3 2 2 3 4 5 5 5 5 4 4 4 4 3 3 4 3 2 1 1 2 2 1 1 1 1 1 1 1 1 1 0
2 1 2 2 2 2 3 3 4 3 3 2 3 3 3 3 4 5 5 5 4 4 4 4 4 3 3 3 2 1 1 0 1 2 2 2 1 1 1 1 1 1 1
1 1 1 2 2 3 3 4 3 4 4 5 5 4 3 3 3 5 5 5 4 4 4 4 4 4 3 3 2 2 2 1 1 1 2 1 2 2 2 1 1 1 1
Wind_Direction
121 131 133 130 130 128 126 123 119 116 116 114 112 108 107 104 102 100 99 98 95 95 95 94 91 89 87 86 85 83 83 82 82 80 77 76 74 73 72 74 73 66 69
127 132 134 131 130 130 128 125 120 118 117 115 113 110 110 108 106 103 101 98 97 97 95 94 92 90 89 87 86 85 83 84 87 87 81 73 73 73 73 72 74 72 69
123 132 135 133 132 129 128 127 125 121 120 117 113 111 111 111 108 105 103 100 99 97 96 94 92 90 89 88 87 85 82 80 81 84 85 77 72 74 75 74 73 72 70
122 132 134 134 133 132 129 128 128 125 122 119 116 114 110 110 108 106 105 103 101 98 96 95 91 89 89 88 87 85 78 70 65 68 74 71 70 74 74 74 73 71 69
117 126 131 135 134 133 132 129 129 128 125 122 121 118 114 111 108 106 105 104 102 100 97 94 91 89 89 88 87 82 72 61 59 65 74 71 67 75 75 74 73 72 71
117 123 130 134 136 135 134 132 129 129 128 126 123 120 118 116 111 107 103 104 103 101 98 95 92 91 90 89 87 78 65 56 54 71 73 70 69 78 79 77 76 74 71
117 122 133 129 136 135 135 134 131 130 132 131 127 124 120 117 114 109 107 106 105 104 102 99 95 93 90 88 85 74 59 51 73 75 72 66 71 79 79 78 77 75 72
115 120 133 132 131 137 139 138 136 134 134 133 130 126 122 120 117 114 112 109 107 107 106 103 100 95 92 88 83 68 52 49 75 82 75 67 75 79 79 77 77 74 71
115 123 132 136 135 133 140 141 141 139 135 133 131 127 124 123 122 118 116 112 109 107 109 109 106 100 96 92 84 65 48 45 64 81 83 71 77 78 78 77 76 74 71
115 125 136 140 139 142 140 142 143 141 137 134 132 129 128 129 126 122 117 113 111 109 109 110 110 107 103 98 88 59 39 45 79 80 79 80 79 79 78 76 75 73 71
117 128 142 142 141 141 145 143 141 142 141 138 135 136 136 143 136 126 117 117 117 114 111 111 113 113 111 107 99 55 27 78 82 81 76 84 81 80 77 75 73 70 69
139 144 147 141 145 144 147 147 152 155 155 160 154 158 163 148 130 124 121 120 122 119 117 119 121 129 131 138 125 57 79 93 90 90 85 88 85 83 79 74 69 66 63
154 146 151 142 142 143 143 156 159 157 167 171 160 167 157 135 128 127 130 126 129 132 129 131 142 168 155 140 140 123 96 87 89 89 88 90 88 87 82 75 69 62 57
150 148 155 148 148 146 151 160 161 159 171 170 166 170 155 140 140 142 146 151 155 149 145 155 171 159 134 135 133 111 98 100 102 101 97 96 92 88 84 78 68 58 56
160 167 168 160 159 151 144 172 169 165 165 164 157 164 150 143 146 144 148 148 149 142 151 162 144 119 104 93 97 102 103 110 116 112 105 104 102 94 85 75 65 51 46
173 181 179 167 164 157 158 174 179 170 155 153 161 158 147 145 143 145 142 142 138 142 149 142 134 117 102 92 84 79 97 114 123 123 120 108 104 102 96 80 60 43 30
183 180 181 175 165 166 167 177 185 179 161 156 166 161 150 144 144 145 143 140 142 139 131 121 118 112 112 104 94 81 83 97 114 124 133 129 118 105 104 92 52 31 18
176 170 170 183 171 170 174 184 187 183 169 161 161 163 156 148 149 146 144 144 142 132 125 123 125 117 115 115 112 95 89 101 112 124 123 133 140 135 131 123 76 23 5
143 160 175 192 181 177 172 177 184 176 168 164 158 168 163 155 153 151 148 147 144 136 134 143 131 130 126 116 108 95 84 94 111 128 141 147 149 149 155 153 159 198 333
152 136 140 202 192 178 166 162 162 168 168 165 162 167 160 156 155 151 147 151 149 144 148 150 145 138 135 140 122 94 119 167 164 168 184 174 167 161 156 160 170 220 261
84 115 158 215 210 172 162 171 178 190 181 168 170 168 163 157 154 151 152 155 154 155 159 155 145 139 141 137 106 54 315 227 199 197 191 181 186 184 176 174 165 171 219
135 161 177 205 214 203 182 184 187 190 187 180 175 177 170 160 156 156 154 158 157 155 160 162 149 147 163 161 142 133 278 305 277 211 187 183 190 191 200 187 182 188 181
243 185 210 218 216 214 197 168 168 168 163 174 176 177 174 164 159 157 159 158 160 161 170 174 168 160 170 189 167 160 173 212 258 271 226 203 187 173 192 169 176 192 183
257 205 192 211 224 216 198 178 180 181 184 190 173 166 168 162 159 158 159 160 165 166 171 180 171 165 159 179 206 205 189 165 157 241 277 247 212 199 190 203 207 227 204
268 213 199 206 217 224 206 198 195 191 189 161 154 155 170 171 166 160 157 158 165 168 171 174 170 171 169 173 180 190 235 297 188 175 238 258 265 241 208 204 205 218 230
298 243 219 217 221 217 212 203 200 195 184 166 164 165 173 178 176 169 163 160 166 166 169 174 178 174 177 176 180 176 172 187 208 197 220 244 252 252 243 226 211 216 220